Погода в Овингс Миллс

США     39°25′08″N   76°46′48″W
темп.,
°C
ветер,
м/с
пор.,
м/с
влажн.,
%
обл.,
%
осадки,
мм/ч
давл.,
гПа
погр.,
м
23 января, сб
сб2301:00−4сз611590 0.0 10181097
04:00−4сз596262 0.0 10191157
07:00−4сз6135267 0.1 10211510
10:00−3сз712430 0.0 10241505
13:00−1сз7114047 0.0 10231581
16:00−1сз7114238 0.0 10241547
19:00−4сз611550 0.0 10251045
22:00−4сз510590 0.0 10271011
24 января, вс
вс2401:00−5сз5106010 0.0 1027846
04:00−5сз5106178 0.0 1027756
07:00−6сз496255 0.0 1027615
10:00−4сз475030 0.0 1027582
13:000зсз343646 0.0 1024788
16:00+1з133710 0.0 1022574
19:00−1юз114650 0.0 102224
22:00−1в014797 0.0 102221
25 января, пн
пн2501:00−1всв125295 0.0 101942
04:00−2в115481 0.0 101848
07:00−2св125586 0.0 102064
10:00+1в1247100 0.0 1020267
13:00+2вюв1247100 0.0 1018499
16:00+2вюв2461100 0.0 1018411
19:000в3685100 0.7 1018457
22:00−1в3694100 1.4 1016379
26 января, вт
вт2601:00−2в51097100 8.6 1015538
04:00−1в61196100 2.8 1013399
07:00−1в51097100 6.9 1013403
10:000в4799100 0.9 1014259
13:00+1в48100100 1.4 1011235
16:00+2в36100100 0.1 1010186
19:00+1в1210099 0.2 101253
22:00+1ююв11100100 1.1 101524
27 января, ср
ср2701:00+3з23100100 0.8 101472
04:00+2зсз2699100 0.0 1016173
07:00+2с22100100 0.0 102044
10:00+4ссз25867 0.0 1020399
13:00+6з237214 0.0 1020838
16:00+5зсз127678 0.1 1019588
19:00+3св128459 0.1 101941
22:00+3всв2597100 0.0 1018186